QPF
0.00 0.00 0.00 0.00 0.00 0.00 0.01 0.01 0.02 0.00 0.00 0.00 0.00 0.00 0.00 0.00 0.00 0.00 0.00 0.00 0.00 0.01 0.01 0.01 0.00 0.00 0.00 0.02 0.02 0.04 0.09 0.06 0.03 0.07 0.05 0.06 0.08 0.06
0.00 0.00 0.00 0.00 0.00 0.00 0.00 0.00 0.01 0.01 0.00 0.00 0.00 0.00 0.00 0.00 0.00 0.00 0.00 0.00 0.00 0.01 0.01 0.00 0.00 0.00 0.00 0.02 0.01 0.01 0.04 0.09 0.05 0.02 0.04 0.04 0.06 0.05
0.00 0.00 0.00 0.00 0.00 0.00 0.00 0.00 0.01 0.01 0.01 0.00 0.00 0.00 0.00 0.00 0.00 0.00 0.00 0.00 0.00 0.00 0.00 0.00 0.01 0.01 0.00 0.00 0.00 0.00 0.01 0.05 0.05 0.02 0.03 0.03 0.04 0.03
0.00 0.00 0.00 0.00 0.00 0.00 0.00 0.00 0.01 0.01 0.01 0.00 0.00 0.00 0.00 0.00 0.00 0.00 0.00 0.00 0.00 0.00 0.00 0.00 0.00 0.01 0.00 0.00 0.00 0.00 0.00 0.01 0.03 0.02 0.01 0.01 0.01 0.02
0.00 0.00 0.00 0.00 0.00 0.00 0.00 0.00 0.00 0.00 0.00 0.00 0.00 0.00 0.00 0.00 0.00 0.00 0.00 0.00 0.00 0.00 0.00 0.00 0.00 0.00 0.01 0.01 0.00 0.00 0.00 0.00 0.01 0.01 0.00 0.00 0.00 0.01
0.00 0.00 0.00 0.00 0.00 0.00 0.00 0.00 0.00 0.00 0.00 0.00 0.00 0.00 0.00 0.00 0.00 0.00 0.00 0.00 0.00 0.00 0.00 0.00 0.00 0.00 0.00 0.00 0.00 0.00 0.00 0.00 0.01 0.01 0.01 0.00 0.00 0.00
0.00 0.00 0.00 0.00 0.01 0.01 0.01 0.01 0.01 0.01 0.01 0.01 0.00 0.00 0.00 0.00 0.00 0.00 0.00 0.00 0.00 0.00 0.00 0.00 0.00 0.00 0.00 0.00 0.00 0.00 0.00 0.00 0.01 0.01 0.01 0.01 0.01 0.01
0.00 0.00 0.00 0.00 0.00 0.00 0.01 0.00 0.01 0.01 0.01 0.01 0.01 0.01 0.00 0.00 0.00 0.00 0.00 0.00 0.00 0.00 0.00 0.00 0.00 0.00 0.00 0.00 0.00 0.00 0.00 0.00 0.00 0.01 0.01 0.01 0.01 0.02
0.00 0.00 0.00 0.00 0.00 0.00 0.00 0.00 0.00 0.00 0.00 0.01 0.00 0.00 0.00 0.01 0.00 0.00 0.00 0.00 0.00 0.00 0.00 0.00 0.00 0.00 0.00 0.00 0.00 0.00 0.00 0.00 0.00 0.00 0.01 0.01 0.01 0.01
0.00 0.00 0.00 0.00 0.00 0.00 0.00 0.00 0.00 0.00 0.00 0.00 0.00 0.00 0.00 0.00 0.00 0.00 0.00 0.00 0.00 0.00 0.00 0.00 0.00 0.00 0.00 0.00 0.00 0.00 0.00 0.00 0.00 0.00 0.01 0.01 0.01 0.01
0.00 0.00 0.00 0.00 0.00 0.00 0.00 0.00 0.00 0.00 0.00 0.00 0.00 0.00 0.00 0.00 0.00 0.00 0.00 0.00 0.00 0.00 0.00 0.00 0.00 0.00 0.00 0.00 0.00 0.00 0.00 0.00 0.00 0.00 0.01 0.01 0.01 0.00
0.00 0.00 0.00 0.00 0.00 0.01 0.01 0.00 0.00 0.00 0.00 0.00 0.00 0.00 0.00 0.00 0.00 0.00 0.00 0.00 0.00 0.00 0.00 0.00 0.00 0.00 0.00 0.00 0.00 0.00 0.00 0.01 0.01 0.01 0.01 0.01 0.00 0.00
0.00 0.00 0.00 0.00 0.01 0.01 0.01 0.00 0.00 0.00 0.01 0.01 0.00 0.00 0.00 0.00 0.00 0.00 0.00 0.00 0.00 0.00 0.00 0.00 0.00 0.00 0.00 0.00 0.00 0.00 0.00 0.00 0.01 0.01 0.01 0.01 0.00 0.00
0.01 0.01 0.00 0.01 0.01 0.01 0.01 0.00 0.00 0.00 0.00 0.00 0.00 0.00 0.00 0.00 0.00 0.00 0.00 0.00 0.00 0.00 0.00 0.00 0.00 0.00 0.00 0.00 0.00 0.00 0.00 0.00 0.00 0.00 0.00 0.00 0.00 0.00
0.00 0.00 0.01 0.01 0.01 0.01 0.01 0.01 0.01 0.00 0.00 0.00 0.00 0.00 0.00 0.00 0.00 0.00 0.00 0.00 0.00 0.00 0.00 0.00 0.00 0.00 0.00 0.00 0.00 0.00 0.00 0.00 0.00 0.00 0.00 0.00 0.00 0.00
0.00 0.00 0.00 0.00 0.00 0.00 0.01 0.01 0.00 0.00 0.00 0.00 0.00 0.00 0.00 0.00 0.00 0.00 0.00 0.00 0.00 0.00 0.00 0.00 0.00 0.00 0.00 0.00 0.00 0.00 0.00 0.00 0.00 0.00 0.00 0.00 0.00 0.00
0.00 0.00 0.00 0.00 0.00 0.00 0.00 0.00 0.00 0.00 0.00 0.00 0.00 0.00 0.00 0.00 0.00 0.00 0.00 0.00 0.00 0.00 0.00 0.00 0.00 0.00 0.00 0.00 0.00 0.00 0.00 0.00 0.00 0.00 0.00 0.00 0.00 0.00
0.00 0.00 0.00 0.00 0.00 0.00 0.00 0.00 0.00 0.00 0.00 0.00 0.00 0.00 0.00 0.00 0.00 0.00 0.00 0.00 0.00 0.00 0.00 0.00 0.00 0.00 0.00 0.00 0.00 0.00 0.00 0.00 0.00 0.00 0.00 0.00 0.00 0.00
0.00 0.00 0.00 0.00 0.00 0.00 0.00 0.00 0.00 0.00 0.00 0.00 0.00 0.00 0.00 0.00 0.00 0.00 0.00 0.00 0.00 0.00 0.00 0.00 0.00 0.00 0.00 0.00 0.00 0.00 0.00 0.00 0.00 0.00 0.00 0.00 0.00 0.00
0.00 0.00 0.00 0.00 0.00 0.00 0.00 0.00 0.00 0.00 0.00 0.00 0.00 0.00 0.00 0.00 0.00 0.00 0.00 0.00 0.00 0.00 0.00 0.00 0.00 0.00 0.00 0.00 0.00 0.00 0.00 0.00 0.00 0.00 0.00 0.00 0.00 0.00
0.00 0.00 0.00 0.00 0.00 0.00 0.00 0.00 0.00 0.00 0.00 0.00 0.00 0.00 0.00 0.00 0.00 0.00 0.00 0.00 0.00 0.00 0.00 0.00 0.00 0.00 0.00 0.00 0.00 0.00 0.00 0.00 0.00 0.00 0.00 0.00 0.00 0.00
0.00 0.00 0.00 0.00 0.00 0.00 0.00 0.00 0.00 0.00 0.00 0.00 0.00 0.00 0.00 0.00 0.00 0.00 0.00 0.00 0.00 0.00 0.00 0.00 0.00 0.00 0.00 0.00 0.00 0.00 0.00 0.00 0.00 0.00 0.00 0.00 0.00 0.00
0.00 0.00 0.00 0.00 0.00 0.00 0.00 0.00 0.00 0.00 0.00 0.00 0.00 0.00 0.00 0.00 0.00 0.00 0.00 0.00 0.00 0.00 0.00 0.00 0.00 0.00 0.00 0.00 0.00 0.00 0.00 0.00 0.00 0.00 0.00 0.00 0.00 0.00
MSLP
1018.21 1017.77 1017.27 1016.69 1016.38 1015.89 1015.25 1014.73 1013.84 1011.66 1010.27 1009.25 1008.51 1008.01 1007.18 1006.22 1005.09 1004.24 1003.08 1002.15 1001.51 1000.32 999.42 998.43 997.04 996.08 995.72 995.38 995.61 996.09 996.72 997.36 998.35 999.77 1000.96 1002.37 1003.57 1005.23
1017.81 1017.41 1016.99 1016.53 1016.04 1015.56 1014.96 1014.27 1013.61 1012.56 1010.37 1009.38 1008.40 1007.37 1006.42 1005.40 1004.31 1003.50 1002.43 1001.49 1000.49 999.25 998.20 996.91 996.22 995.26 995.01 994.49 994.40 994.86 995.62 996.26 996.90 998.08 999.39 1000.63 1002.41 1004.34
1017.54 1017.07 1016.54 1016.14 1015.59 1014.98 1014.41 1013.74 1013.02 1012.17 1010.52 1008.73 1008.31 1006.99 1005.76 1004.62 1003.62 1002.94 1001.79 1000.88 999.65 998.07 996.58 995.95 995.25 994.73 994.27 993.01 993.40 993.80 994.60 995.14 994.76 995.98 997.94 999.74 1001.99 1003.76
1017.03 1016.56 1016.02 1015.49 1015.01 1014.45 1013.82 1013.11 1012.43 1011.60 1010.55 1008.78 1007.89 1006.54 1005.49 1004.18 1003.02 1001.86 1000.79 1000.09 998.98 997.24 996.02 995.22 994.50 993.70 992.51 991.82 992.29 992.75 993.74 994.55 995.14 995.62 997.74 999.51 1001.73 1003.40
1016.52 1016.01 1015.40 1014.89 1014.31 1013.75 1013.14 1012.44 1011.70 1010.91 1010.13 1008.98 1007.58 1006.49 1005.05 1003.81 1002.63 1001.46 1000.56 999.65 998.66 997.21 995.91 994.84 993.17 992.39 991.99 991.14 991.49 992.10 993.00 993.79 995.16 995.90 997.29 999.03 1000.20 1003.05
1015.68 1015.24 1014.66 1014.14 1013.61 1012.90 1012.13 1011.46 1010.81 1010.11 1009.37 1008.59 1007.46 1006.29 1004.92 1003.41 1002.41 1001.40 1000.19 999.62 998.37 996.89 996.03 994.66 994.27 993.25 992.49 991.40 991.01 991.21 991.76 992.96 994.15 995.82 996.40 998.32 999.80 1002.21
1014.85 1014.42 1013.80 1013.22 1012.56 1011.83 1011.14 1010.61 1010.18 1009.47 1008.61 1007.75 1006.87 1005.95 1004.70 1003.62 1002.96 1001.70 1000.76 999.50 998.18 997.00 995.85 994.64 993.87 993.24 992.42 991.19 990.42 990.00 990.08 990.93 992.55 994.48 995.01 997.26 999.65 1001.74
1014.10 1013.58 1013.09 1012.41 1011.85 1011.14 1010.47 1009.93 1009.57 1008.87 1008.21 1007.59 1006.69 1005.81 1004.84 1003.96 1003.45 1002.42 1001.51 1000.36 998.86 997.50 996.57 994.72 994.25 993.27 992.13 991.64 989.76 988.85 987.85 988.60 990.68 993.51 995.03 997.21 999.27 1001.46
1013.54 1013.03 1012.42 1011.82 1011.28 1010.73 1010.06 1009.56 1009.03 1008.44 1007.71 1007.09 1006.45 1005.81 1004.99 1004.17 1003.62 1002.39 1001.49 1000.52 999.21 997.77 997.05 995.10 993.91 993.21 991.98 990.86 989.53 988.73 988.30 988.91 990.78 993.18 995.39 997.18 999.69 1001.56
1012.84 1012.38 1011.80 1011.10 1010.64 1010.05 1009.46 1009.00 1008.49 1007.95 1007.40 1006.84 1006.13 1005.47 1004.86 1003.88 1003.47 1002.86 1001.81 1000.39 998.94 997.84 997.57 996.32 994.36 993.55 992.41 991.32 989.73 988.45 988.72 990.10 991.53 993.30 995.84 998.13 1000.20 1002.07
1011.99 1011.53 1011.01 1010.26 1009.71 1009.15 1008.62 1008.30 1007.86 1007.27 1006.78 1006.16 1005.49 1004.96 1004.31 1003.59 1003.05 1002.58 1001.89 1000.68 999.33 998.33 997.76 997.18 995.84 994.01 992.95 992.07 990.88 988.76 988.99 990.82 992.45 994.53 996.25 998.40 1000.75 1002.63
1011.29 1010.68 1010.09 1009.46 1008.71 1008.13 1007.91 1007.63 1007.28 1006.84 1006.45 1005.89 1005.29 1004.80 1004.33 1003.74 1002.90 1002.29 1002.04 1001.50 1000.45 998.72 997.64 997.50 996.66 995.67 994.07 993.66 992.80 990.86 990.27 991.55 993.08 994.96 997.10 999.11 1000.90 1003.37
1010.69 1009.79 1009.22 1008.70 1008.07 1007.53 1007.21 1007.08 1006.86 1006.34 1005.77 1005.75 1005.25 1004.65 1004.15 1003.95 1003.22 1002.70 1002.29 1002.09 1001.46 1000.38 998.88 998.22 997.73 997.08 996.38 995.61 995.11 994.08 992.42 992.63 994.37 996.15 998.29 1000.00 1001.67 1003.75
1010.25 1009.46 1008.76 1008.05 1007.34 1006.83 1006.45 1006.26 1006.01 1005.71 1005.53 1005.39 1005.28 1004.74 1004.30 1003.66 1003.36 1003.09 1002.61 1002.34 1001.94 1001.13 999.87 998.62 998.54 998.10 997.81 997.69 997.58 997.06 996.15 996.20 996.81 998.27 999.90 1001.77 1003.49 1005.17
1009.95 1009.04 1008.09 1007.42 1006.85 1006.36 1005.92 1005.49 1005.26 1005.35 1005.41 1005.28 1005.25 1004.92 1004.38 1004.13 1003.57 1003.44 1003.11 1002.62 1002.22 1001.59 1000.72 999.79 999.24 999.16 999.07 999.61 999.89 999.54 998.43 1000.09 999.85 1001.35 1002.90 1004.28 1005.47 1006.47
1009.40 1008.72 1007.97 1007.16 1006.56 1006.01 1005.50 1005.24 1005.21 1005.26 1005.15 1004.97 1004.88 1004.64 1004.45 1004.06 1003.99 1003.40 1003.32 1003.03 1002.79 1002.54 1002.21 1001.45 1000.75 1000.66 1000.94 1001.48 1001.58 1001.35 1000.81 1001.75 1002.81 1003.76 1004.83 1006.41 1007.81 1008.87
1008.76 1008.51 1007.87 1007.17 1006.49 1005.89 1005.36 1005.04 1004.78 1004.88 1004.86 1004.83 1004.70 1004.61 1004.62 1004.45 1004.06 1003.87 1003.93 1003.60 1003.50 1003.53 1003.58 1003.28 1002.79 1002.58 1002.82 1003.17 1003.45 1003.58 1003.27 1003.75 1004.83 1005.52 1005.73 1008.02 1009.89 1010.65
1008.79 1008.64 1008.11 1007.49 1006.86 1006.23 1005.63 1005.13 1004.62 1004.55 1004.65 1004.66 1004.62 1004.55 1004.70 1004.71 1004.33 1004.21 1004.08 1004.17 1004.20 1004.43 1004.33 1004.24 1003.89 1003.57 1003.93 1005.17 1005.83 1005.76 1005.75 1005.92 1006.75 1007.38 1007.86 1008.54 1011.33 1012.29
1009.01 1008.52 1008.08 1007.50 1006.91 1006.36 1005.87 1005.41 1005.00 1004.49 1004.17 1004.36 1004.40 1004.46 1004.60 1004.66 1004.61 1004.54 1004.67 1004.62 1004.80 1004.64 1004.60 1004.55 1004.53 1004.48 1005.14 1006.47 1007.77 1007.78 1007.47 1007.89 1008.19 1009.05 1009.97 1010.59 1011.50 1013.89
1008.90 1008.34 1007.77 1007.13 1006.59 1006.17 1005.70 1005.33 1004.96 1004.57 1004.13 1004.12 1004.15 1004.20 1004.29 1004.48 1004.65 1004.88 1004.94 1004.94 1005.07 1005.33 1005.29 1005.18 1005.08 1005.50 1005.78 1007.08 1008.52 1009.73 1009.45 1009.19 1009.07 1010.08 1011.28 1012.52 1013.90 1015.15
1008.62 1007.98 1007.45 1006.80 1006.21 1005.80 1005.42 1005.04 1004.74 1004.40 1003.87 1003.74 1003.96 1004.12 1004.17 1004.22 1004.35 1004.62 1004.98 1004.90 1005.24 1005.54 1005.86 1006.02 1006.30 1006.63 1007.20 1007.66 1009.05 1010.45 1011.05 1010.92 1010.81 1010.76 1012.33 1013.38 1015.13 1016.49
1008.51 1007.78 1007.07 1006.41 1005.81 1005.37 1005.05 1004.70 1004.38 1004.11 1003.89 1003.63 1003.79 1004.02 1004.13 1004.24 1004.22 1004.36 1004.64 1005.00 1005.36 1005.64 1006.30 1006.94 1007.16 1007.29 1007.94 1008.78 1010.13 1011.08 1012.00 1012.42 1012.57 1013.03 1013.42 1013.97 1015.18 1016.52
1008.32 1007.56 1006.76 1005.99 1005.36 1004.91 1004.59 1004.30 1004.03 1003.82 1003.68 1003.49 1003.55 1003.85 1004.11 1004.26 1004.24 1004.39 1004.53 1004.77 1005.29 1006.05 1006.74 1007.43 1007.86 1008.33 1009.18 1009.93 1010.41 1011.58 1012.62 1013.45 1014.14 1014.58 1015.12 1015.35 1015.77 1016.22
Thickness
5297 5278 5264 5254 5240 5229 5223 5221 5227 5249 5268 5281 5292 5301 5312 5323 5335 5344 5360 5374 5386 5403 5419 5437 5463 5489 5510 5533 5551 5564 5576 5588 5594 5596 5598 5598 5600 5596
5284 5268 5255 5245 5233 5224 5221 5223 5230 5243 5266 5277 5289 5301 5312 5324 5335 5345 5361 5377 5390 5404 5423 5443 5464 5487 5506 5532 5550 5565 5574 5588 5598 5602 5601 5603 5600 5595
5272 5260 5250 5240 5230 5224 5223 5227 5236 5247 5266 5281 5288 5301 5313 5325 5335 5348 5365 5377 5393 5413 5433 5447 5465 5485 5505 5535 5549 5565 5575 5588 5609 5612 5606 5602 5594 5590
5267 5258 5249 5240 5230 5226 5228 5234 5242 5253 5264 5279 5289 5301 5311 5325 5340 5357 5371 5383 5398 5418 5434 5449 5468 5488 5516 5537 5552 5565 5574 5585 5595 5604 5598 5597 5590 5586
5264 5257 5249 5241 5233 5232 5235 5242 5250 5260 5268 5277 5289 5298 5313 5327 5344 5359 5374 5388 5400 5416 5434 5452 5478 5496 5515 5536 5550 5561 5570 5578 5584 5591 5593 5593 5596 5582
5266 5258 5252 5244 5239 5241 5245 5252 5260 5267 5273 5280 5288 5297 5313 5332 5347 5360 5374 5388 5402 5422 5435 5454 5466 5488 5505 5527 5547 5561 5572 5576 5582 5583 5592 5589 5589 5580
5270 5262 5256 5251 5250 5252 5257 5262 5266 5273 5279 5287 5293 5300 5315 5329 5340 5358 5371 5389 5404 5420 5435 5453 5466 5480 5501 5522 5543 5564 5579 5591 5591 5587 5599 5594 5582 5577
5272 5266 5260 5257 5255 5259 5264 5268 5272 5278 5282 5287 5294 5302 5313 5327 5337 5350 5363 5379 5399 5414 5426 5449 5459 5473 5494 5510 5544 5568 5591 5605 5602 5592 5592 5585 5581 5572
5272 5267 5262 5260 5259 5261 5266 5272 5277 5282 5288 5292 5295 5302 5312 5325 5334 5351 5364 5379 5395 5412 5423 5446 5461 5475 5492 5512 5537 5563 5584 5599 5596 5590 5583 5577 5568 5563
5272 5268 5265 5264 5262 5265 5269 5274 5280 5286 5290 5295 5299 5306 5314 5330 5339 5348 5363 5381 5397 5413 5420 5436 5456 5471 5486 5504 5530 5561 5578 5585 5584 5583 5574 5565 5558 5552
5274 5271 5268 5268 5268 5270 5274 5278 5284 5291 5296 5301 5306 5312 5321 5333 5343 5351 5363 5380 5396 5410 5418 5427 5446 5466 5480 5494 5518 5556 5574 5575 5574 5567 5564 5557 5547 5541
5275 5273 5271 5272 5273 5275 5276 5279 5285 5293 5297 5303 5307 5312 5321 5332 5346 5354 5362 5373 5389 5413 5421 5428 5440 5452 5476 5483 5505 5536 5562 5567 5565 5560 5551 5544 5538 5526
5275 5277 5274 5274 5275 5276 5278 5280 5285 5294 5302 5303 5308 5314 5323 5331 5343 5353 5362 5369 5384 5396 5414 5423 5434 5444 5455 5468 5485 5510 5538 5550 5547 5543 5536 5528 5524 5518
5272 5275 5274 5275 5277 5278 5280 5283 5288 5295 5300 5304 5308 5315 5322 5334 5342 5350 5361 5368 5378 5392 5408 5424 5430 5440 5447 5452 5464 5480 5502 5514 5521 5517 5516 5509 5506 5504
5268 5271 5275 5276 5277 5277 5279 5284 5289 5292 5295 5303 5308 5312 5320 5327 5340 5347 5358 5367 5377 5389 5402 5417 5429 5434 5441 5443 5447 5462 5485 5479 5495 5493 5488 5488 5490 5493
5266 5267 5269 5273 5274 5275 5277 5280 5282 5286 5293 5301 5308 5314 5318 5328 5335 5347 5357 5366 5374 5383 5391 5404 5417 5426 5429 5432 5438 5448 5464 5468 5470 5473 5475 5472 5472 5474
5266 5263 5264 5266 5268 5271 5272 5276 5280 5283 5288 5296 5306 5312 5315 5322 5336 5343 5351 5361 5369 5376 5381 5389 5400 5411 5416 5419 5428 5435 5447 5454 5455 5459 5468 5459 5453 5457
5258 5253 5254 5256 5259 5262 5267 5270 5275 5281 5283 5291 5301 5309 5313 5318 5328 5340 5349 5356 5361 5368 5375 5382 5393 5404 5409 5405 5407 5418 5429 5437 5438 5442 5447 5453 5438 5440
5246 5249 5248 5250 5252 5254 5258 5262 5267 5273 5283 5290 5297 5304 5310 5316 5324 5335 5342 5352 5357 5366 5373 5381 5389 5398 5399 5395 5390 5399 5410 5417 5424 5426 5427 5432 5433 5423
5243 5245 5245 5248 5248 5250 5253 5256 5260 5269 5279 5287 5294 5302 5310 5316 5320 5328 5338 5348 5356 5359 5367 5377 5388 5391 5398 5394 5386 5384 5395 5406 5415 5414 5414 5412 5410 5408
5240 5241 5242 5244 5245 5247 5250 5253 5255 5263 5273 5284 5291 5298 5307 5314 5321 5326 5334 5346 5352 5357 5362 5369 5373 5378 5381 5385 5381 5379 5380 5389 5399 5409 5405 5403 5397 5394
5235 5237 5239 5241 5243 5245 5248 5250 5252 5259 5270 5281 5287 5294 5302 5309 5318 5325 5334 5342 5348 5355 5356 5359 5365 5372 5375 5375 5372 5372 5373 5378 5385 5388 5392 5396 5396 5391
5231 5234 5236 5238 5240 5243 5246 5249 5250 5258 5265 5276 5285 5291 5297 5304 5313 5321 5330 5339 5345 5347 5349 5354 5360 5363 5364 5364 5368 5367 5367 5367 5370 5373 5375 5380 5384 5388